SCP
0 0 0 0 0 0 0 0 0 0 0 0 0 0 0 0 0 0 0 0 0 0 0 0 0 0 0 0 0 0 0 0 0 0 0 0 0 0 0 0 0 0 0
0 0 0 0 0 0 0 0 0 0 0 0 0 0 0 0 0 0 0 0 0 0 0 0 0 0 0 0 0 0 0 0 0 0 0 0 0 0 0 0 0 0 0
0 0 0 0 0 0 0 0 0 0 0 0 0 0 0 0 0 0 0 0 0 0 0 0 0 0 0 0 0 0 0 0 0 0 0 0 0 0 0 0 0 0 0
0 0 0 0 0 0 0 0 0 0 0 0 0 0 0 0 0 0 0 0 0 0 0 0 0 0 0 0 0 0 0 0 0 0 0 0 0 0 0 0 0 0 0
0 0 0 0 0 0 0 0 0 0 0 0 0 0 0 0 0 0 0 0 0 0 0 0 0 0 0 0 0 0 0 0 0 0 0 0 0 0 0 0 0 0 0
0 0 0 0 0 0 0 0 0 0 0 0 0 0 0 0 0 0 0 0 0 0 0 0 0 0 0 0 0 0 0 0 0 0 0 0 0 0 0 0 0 0 0
0 0 0 0 0 0 0 0 0 0 0 0 0 0 0 0 0 0 0 0 0 0 0 0 0 0 0 0 0 0 0 0 0 0 0 0 0 0 0 0 0 0 0
0 0 0 0 0 0 0 0 0 0 0 0 0 0 0 0 0 0 0 0 0 0 0 0 0 0 0 0 0 0 0 0 0 0 0 0 0 0 0 0 0 0 0
0 0 0 0 0 0 0 0 0 0 0 0 0 0 0 0 0 0 0 0 0 0 0 0 0 0 0 0 0 0 0 0 0 0 0 0 0 0 0 0 0 0 0
0 0 0 0 0 0 0 0 0 0 0 0 0 0 0 0 0 0 0 0 0 0 0 0 0 0 0 0 0 0 0 0 0 0 0 0 0 0 0 0 0 0 0
0 0 0 0 0 0 0 0 0 0 0 0 0 0 0 0 0 0 0 0 0 0 0 0 0 0 0 0 0 0 0 0 0 0 0 0 0 0 0 0 0 0 0
0 0 0 0 0 0 0 0 0 0 0 0 0 0 0 0 0 0 0 0 0 0 0 0 0 0 0 0 0 0 0 0 0 0 0 0 0 0 0 0 0 0 0
0 0 0 0 0 0 0 0 0 0 0 0 0 0 0 0 0 0 0 0 0 0 0 0 0 0 0 0 0 0 0 0 0 0 0 0 0 0 0 0 0 0 0
0 0 0 0 0 0 0 0 0 0 0 0 0 0 0 0 0 0 0 0 0 0 0 0 0 0 0 0 0 0 0 0 0 0 0 0 0 0 0 0 0 0 0
0 0 0 0 0 0 0 0 0 0 0 0 0 0 0 0 0 0 0 0 0 0 0 0 0 0 0 0 0 0 0 0 0 0 0 0 0 0 0 0 0 0 0
0 0 0 0 0 0 0 0 0 0 0 0 0 0 0 0 0 0 0 0 0 0 0 0 0 0 0 0 0 0 0 0 0 0 0 0 0 0 0 0 0 0 0
0 0 0 0 0 0 0 0 0 0 0 0 0 0 0 0 0 0 0 0 0 0 0 0 0 0 0 0 0 0 0 0 0 0 0 0 0 0 0 0 0 0 0
0 0 0 0 0 0 0 0 0 0 0 0 0 0 0 0 0 0 0 0 0 0 0 0 0 0 0 0 0 0 0 0 0 0 0 0 0 0 0 0 0 0 0
0 0 0 0 0 0 0 0 0 0 0 0 0 0 0 0 0 0 0 0 0 0 0 0 0 0 0 0 0 0 0 0 0 0 0 0 0 0 0 0 0 0 0
0 0 0 0 0 0 0 0 0 0 0 0 0 0 0 0 0 0 0 0 0 0 0 0 0 0 0 0 0 0 0 0 0 0 0 0 0 0 0 0 0 0 0
0 0 0 0 0 0 0 0 0 0 0 0 0 0 0 0 0 0 0 0 0 0 0 0 0 0 0 0 0 0 0 0 0 0 0 0 0 0 0 0 0 0 0
0 0 0 0 0 0 0 0 0 0 0 0 0 0 0 0 0 0 0 0 0 0 0 0 0 0 0 -0 0 0 0 0 0 0 0 0 0 0 0 0 0 0 0
0 0 0 0 0 0 0 0 0 0 0 0 0 0 0 0 0 0 0 0 0 0 0 0 0 0 0 0 0 0 0 0 0 0 0 0 0 0 0 0 0 0 0
0 0 0 0 0 0 0 0 0 0 0 0 0 0 0 0 0 0 0 0 0 0 0 0 0 0 0 0 0 0 0 0 0 0 0 0 0 0 0 0 0 0 0
0 0 0 0 0 0 0 0 0 0 0 0 0 0 0 0 0 0 0 0 0 0 0 0 0 0 0 0 0 0 0 0 0 0 0 0 0 0 0 0 0 0 0
0 0 0 0 0 0 0 0 0 0 0 0 0 0 0 0 0 0 0 0 0 0 0 0 0 0 0 0 0 0 0 0 0 0 0 0 0 0 0 0 0 0 0
Wind_Speed
5 4 4 4 4 4 3 4 4 3 3 3 3 3 3 3 2 2 2 2 2 2 2 2 3 3 3 3 3 3 4 4 6 4 2 1 2 2 2 2 2 3 3
6 5 5 5 5 4 4 5 5 4 4 4 3 3 3 3 3 2 3 3 3 3 3 3 4 3 4 3 3 4 4 4 5 6 3 2 3 2 2 2 2 2 3
5 5 5 5 5 5 5 5 5 5 5 5 4 3 3 3 3 3 3 3 3 3 3 3 4 3 4 3 4 4 3 3 3 4 4 2 2 2 2 2 3 2 3
5 5 5 5 5 5 6 5 5 5 4 4 4 4 3 3 3 3 3 3 3 3 3 3 3 3 4 4 4 4 4 3 3 3 3 3 2 1 1 2 3 3 3
5 5 5 5 5 5 5 5 6 5 5 5 5 4 3 3 3 4 4 4 3 3 3 3 3 3 4 4 4 4 4 4 4 4 4 3 2 2 2 2 3 3 3
5 5 5 5 5 5 5 5 5 5 5 5 5 5 5 4 5 6 5 4 4 4 4 3 3 3 4 5 5 5 5 5 5 5 5 4 4 3 2 2 3 3 4
5 5 5 5 5 5 6 5 5 5 5 5 5 5 5 5 6 7 7 5 4 4 4 4 3 3 4 4 5 5 5 5 6 5 6 6 5 3 3 4 4 4 5
4 5 5 5 5 5 6 6 6 5 5 5 5 5 5 5 7 8 8 5 4 4 4 4 4 4 4 4 4 4 4 4 4 4 4 4 3 2 3 4 4 4 4
4 5 5 5 5 6 6 6 5 5 5 5 5 5 6 6 7 8 8 4 4 4 4 4 4 4 6 6 4 4 4 3 4 4 4 4 3 3 2 1 1 2 3
4 4 5 5 5 6 6 6 5 5 5 5 5 5 5 6 8 8 8 4 4 4 4 3 4 6 7 6 5 4 5 4 3 3 3 3 3 2 1 1 2 2 2
4 4 5 5 5 5 5 5 5 5 5 5 5 5 5 5 7 8 8 4 4 4 4 3 3 6 8 8 6 5 5 4 2 2 2 2 2 1 1 1 1 2 2
4 5 5 5 5 4 5 5 4 4 5 5 5 5 4 4 6 7 8 8 7 5 5 4 4 8 9 9 6 5 6 3 2 2 2 2 2 2 1 1 2 2 2
4 5 5 6 5 4 4 5 4 4 4 4 4 5 5 4 5 8 8 9 9 6 5 7 8 8 8 6 6 6 4 2 2 2 2 3 2 2 1 1 1 2 2
5 5 5 5 5 4 4 3 3 3 4 4 4 5 5 5 5 4 4 5 5 5 4 5 7 7 6 5 4 3 2 2 2 2 2 2 2 1 1 1 1 1 1
5 5 5 5 5 4 4 3 4 4 5 6 5 4 5 6 7 10 8 5 4 4 5 3 3 3 2 2 2 2 2 1 1 1 1 1 1 1 1 1 1 1 1
5 5 4 4 4 4 4 5 6 7 10 11 10 9 6 8 11 11 11 10 10 8 5 3 3 3 3 3 2 2 2 2 1 1 1 1 1 1 1 1 1 1 1
4 5 4 4 4 4 3 4 5 6 8 9 10 10 10 10 11 10 10 9 8 6 3 2 2 3 3 3 3 2 2 2 2 1 1 1 1 1 1 1 1 1 1
4 5 4 4 4 3 4 4 4 5 6 6 7 10 11 10 10 10 8 6 4 3 2 2 2 3 3 2 2 2 2 2 2 1 1 1 1 1 1 1 1 1 2
4 3 3 3 3 3 3 3 3 4 5 5 5 6 8 9 9 8 7 3 2 3 2 2 2 2 2 2 2 2 2 2 2 2 1 1 1 1 1 1 2 2 2
3 4 4 3 3 3 3 3 3 4 4 4 5 5 5 4 4 4 3 3 3 3 3 3 2 2 2 2 2 2 2 2 2 2 2 1 1 1 1 2 2 2 2
3 3 4 3 3 3 3 3 3 3 4 4 4 6 8 5 4 4 3 3 3 3 3 3 3 2 2 2 2 2 2 2 2 2 2 1 1 1 1 1 2 2 2
3 3 3 3 3 3 3 3 3 3 4 4 4 5 9 5 3 4 3 3 3 3 3 3 3 2 2 2 2 2 2 2 2 2 2 2 2 2 1 1 2 2 2
2 3 3 3 3 3 3 3 3 3 4 4 4 4 4 4 4 4 4 3 3 3 3 2 3 3 3 2 2 3 3 3 3 2 2 2 2 2 2 2 2 2 2
2 2 3 3 3 3 3 3 4 4 4 4 4 4 4 4 4 4 4 3 3 3 3 3 3 4 5 4 3 3 3 3 3 2 3 3 3 2 2 2 2 3 3
2 2 2 3 3 3 3 4 4 4 4 4 4 4 4 4 4 4 4 4 4 4 4 4 3 4 5 6 5 4 5 6 5 3 2 2 3 3 3 3 3 3 3
2 2 2 2 3 3 3 4 4 4 4 4 4 4 4 4 5 5 4 4 4 4 4 4 5 5 6 6 6 7 7 7 6 5 3 2 3 3 3 3 3 3 3
Wind_Direction
14 8 9 5 360 360 357 349 355 350 347 342 336 346 345 337 329 322 308 300 291 292 294 284 278 279 279 284 276 261 250 242 255 269 269 265 253 256 277 270 276 275 278
6 6 5 3 3 4 358 353 358 356 353 349 350 351 350 344 337 329 318 317 304 295 295 290 286 291 287 284 277 272 268 257 249 262 266 265 259 250 255 271 288 290 289
4 5 6 5 5 2 357 355 357 356 353 353 353 348 343 337 337 328 320 312 309 304 299 290 287 287 283 287 285 279 276 279 270 262 266 265 274 274 281 289 290 285 294
1 5 7 2 0 359 357 353 353 353 350 347 346 340 336 332 335 337 329 319 307 304 304 300 298 293 293 298 291 288 289 284 275 270 272 275 276 279 274 282 294 287 293
360 3 1 359 0 360 358 353 350 350 346 341 340 337 335 329 334 342 329 310 303 305 311 312 310 310 303 295 290 290 291 282 276 268 269 280 280 282 264 269 278 293 286
1 360 358 359 355 353 350 345 345 344 341 338 337 332 332 331 331 331 327 313 307 301 299 300 301 300 302 301 293 287 279 273 273 273 272 266 266 273 278 276 279 285 276
359 358 358 355 349 345 340 339 336 335 334 329 323 324 321 320 324 323 320 311 303 296 291 291 295 302 301 296 295 294 292 283 271 264 265 269 267 263 263 263 263 272 270
352 351 351 347 341 338 336 334 331 329 326 321 320 317 314 311 318 322 321 310 300 294 291 286 286 295 296 295 295 294 291 292 290 280 269 271 274 261 241 255 270 287 293
343 342 340 337 331 330 328 324 324 322 320 319 313 314 313 310 313 317 318 304 301 304 303 299 289 286 288 287 282 282 286 295 314 311 310 304 294 284 273 251 249 265 280
327 326 327 327 321 319 316 314 316 315 311 312 310 310 307 305 304 310 314 302 300 304 304 301 290 286 287 285 275 270 272 279 300 315 322 329 320 300 304 252 235 235 261
324 322 321 320 314 309 307 308 311 310 308 307 307 309 304 301 300 304 309 308 299 296 293 296 297 299 301 297 288 275 268 275 276 278 284 291 308 313 309 307 288 259 250
327 319 314 312 308 308 304 304 305 305 305 305 307 307 305 304 302 303 307 308 309 299 294 293 291 298 304 306 300 285 283 277 260 254 257 262 271 283 294 299 299 291 278
320 309 305 304 302 301 299 301 303 303 300 301 302 302 305 307 306 307 306 307 308 307 299 295 298 304 309 306 300 296 293 267 247 249 258 269 277 283 305 313 323 322 322
306 301 300 301 304 305 301 298 297 296 294 294 296 298 301 303 305 307 304 306 307 309 308 303 303 303 301 300 304 300 285 269 260 258 266 279 292 282 278 297 296 321 336
301 299 300 299 301 302 299 293 295 288 285 292 289 288 293 295 294 300 304 299 295 287 300 296 296 299 301 308 314 316 316 315 300 301 288 280 285 286 297 316 294 298 284
298 300 301 301 300 300 306 311 305 302 304 303 302 302 299 298 303 303 304 304 303 300 304 285 286 290 291 294 293 295 297 292 291 287 278 275 278 286 300 307 308 295 289
291 297 300 299 300 303 305 308 313 316 312 308 309 310 310 312 314 311 309 313 318 320 312 292 287 285 289 293 290 285 287 290 288 273 268 273 280 288 288 290 301 309 305
292 291 291 293 297 298 298 299 301 306 312 314 317 315 316 317 317 319 323 335 336 334 314 296 294 297 295 290 291 300 299 293 285 275 268 262 256 262 276 284 288 283 288
293 295 299 300 301 299 299 300 301 302 303 307 315 322 326 322 321 326 339 349 319 310 309 303 299 297 300 305 308 303 299 297 290 272 257 253 245 240 261 281 288 283 284
302 307 311 308 306 305 305 305 306 308 310 313 317 320 325 330 329 331 337 329 314 306 307 306 307 308 304 305 305 296 291 291 297 297 282 267 257 244 247 262 269 275 279
313 314 316 313 309 307 307 307 307 308 309 310 312 315 322 325 319 316 316 316 312 312 313 312 309 305 300 298 296 292 289 286 288 295 297 294 287 281 275 270 275 277 278
309 311 314 311 310 309 308 307 308 305 303 306 312 318 324 326 316 312 309 308 310 310 307 303 302 302 298 296 290 284 281 283 287 292 298 302 301 292 285 281 281 280 271
318 316 315 314 311 309 311 309 306 304 305 308 309 312 318 317 312 310 311 313 314 313 314 312 307 306 309 309 300 283 274 273 273 265 266 277 277 272 274 274 268 272 273
317 312 311 311 313 311 309 310 309 307 306 307 307 307 308 310 308 309 310 310 309 308 308 306 300 299 302 305 302 295 284 280 278 264 249 250 261 263 264 265 262 254 259
312 308 307 306 305 305 306 306 305 304 303 303 304 303 305 307 308 306 305 303 302 301 303 301 297 297 298 297 294 291 289 289 286 276 263 250 252 255 256 259 258 258 257
307 302 299 298 296 296 295 295 296 299 299 299 299 299 301 301 301 302 303 302 302 300 300 298 294 293 294 293 290 289 286 282 278 265 245 239 244 251 249 255 258 258 250